Weather History for Fryeburg, ME

Change the Weather History Date:

Wednesday, April 17, 2013

  Actual Average Record
Temperature  
Mean Temperature 48 °F -  
Max Temperature 61 °F 56 °F 93 °F (2002)
Min Temperature 30 °F 28 °F 14 °F (2014)
Degree Days  
Heating Degree Days 18    
Moisture  
Dew Point 29 °F    
Average Humidity 46    
Maximum Humidity 89    
Minimum Humidity 25    
Precipitation  
Precipitation 0.00 in - - ()
Sea Level Pressure  
Sea Level Pressure 30.18 in    
Wind  
Wind Speed 8 mph (NW)    
Max Wind Speed 13 mph    
Max Gust Speed 24 mph    
Visibility 10 miles    
Events      
Averages and records for this station are not official NWS values.
T = Trace of Precipitation, MM = Missing Value Source: NWS Daily Summary

Daily Weather History Graph

Daily Weather History Graph

Search for Another Location

Airport:

Trip Planner

Search our weather history database for the weather conditions in past years. The results will help you decide how hot, cold, wet, or windy it might be!

Date:

Astronomy

Apr. 17, 2013 Rise Set
Actual Time 5:56 AM EDT 7:30 PM EDT
Civil Twilight 5:26 AM EDT 8:00 PM EDT
Nautical Twilight 4:50 AM EDT 8:37 PM EDT
Astronomical Twilight 4:10 AM EDT 9:17 PM EDT
Moon 11:03 AM EDT (4/17) 1:10 AM EDT (4/17)
Length of Visible Light 14h 34m
Length of Day
13h 33m
Waxing Crescent, 42% of the Moon is Illuminated
Apr 17
Waxing Crescent
Apr 18
First Quarter
Apr 25
Full
May 2
Last Quarter
May 9
New

Hourly Weather History & Observations

Time (EDT) Temp. Windchill Dew Point Humidity Pressure Visibility Wind Dir Wind Speed Gust Speed Precip Events Conditions
12:54 AM 55.0 °F - 51.1 °F 86% 29.99 in 10.0 mi WSW 5.8 mph - 0.00 in   Scattered Clouds
1:54 AM 53.1 °F - 37.0 °F 55% 30.03 in 10.0 mi WNW 12.7 mph 23.0 mph N/A   Partly Cloudy
2:54 AM 52.0 °F - 36.0 °F 54% 30.04 in 10.0 mi WNW 11.5 mph 20.7 mph N/A   Clear
3:54 AM 50.0 °F - 30.9 °F 48% 30.07 in 10.0 mi NW 9.2 mph 24.2 mph N/A   Clear
4:54 AM 48.0 °F - 28.9 °F 48% 30.08 in 10.0 mi WNW 11.5 mph 24.2 mph 0.00 in   Clear
5:54 AM 46.0 °F 40.6 °F 28.0 °F 50% 30.09 in 10.0 mi West 11.5 mph 19.6 mph N/A   Clear
6:54 AM 46.0 °F 41.4 °F 27.0 °F 47% 30.11 in 10.0 mi WNW 9.2 mph 18.4 mph N/A   Clear
7:54 AM 48.9 °F - 27.0 °F 43% 30.13 in 10.0 mi WNW 4.6 mph - N/A   Clear
8:54 AM 51.1 °F - 27.0 °F 39% 30.14 in 10.0 mi Variable 6.9 mph - N/A   Clear
10:54 AM 55.0 °F - 27.0 °F 34% 30.18 in 10.0 mi ENE 5.8 mph - N/A   Clear
11:54 AM 57.9 °F - 28.0 °F 32% 30.18 in 10.0 mi NE 12.7 mph - N/A   Clear
12:54 PM 55.9 °F - 27.0 °F 33% 30.18 in 10.0 mi Variable 6.9 mph - N/A   Clear
1:54 PM 60.1 °F - 27.0 °F 28% 30.17 in 10.0 mi Variable 6.9 mph - N/A   Clear
2:54 PM 60.1 °F - 27.0 °F 28% 30.19 in 10.0 mi North 8.1 mph 16.1 mph N/A   Clear
3:54 PM 60.1 °F - 24.1 °F 25% 30.20 in 10.0 mi North 11.5 mph 18.4 mph N/A   Clear
4:54 PM 59.0 °F - 24.1 °F 26% 30.23 in 10.0 mi North 12.7 mph 20.7 mph N/A   Clear
5:54 PM 57.9 °F - 24.1 °F 27% 30.25 in 10.0 mi North 11.5 mph - N/A   Clear
6:54 PM 55.0 °F - 23.0 °F 29% 30.28 in 10.0 mi North 6.9 mph - N/A   Clear
7:54 PM 48.0 °F - 24.1 °F 39% 30.31 in 10.0 mi SW 3.5 mph - N/A   Clear
8:54 PM 39.0 °F 35.7 °F 28.9 °F 67% 30.35 in 10.0 mi NW 4.6 mph - N/A   Clear
9:54 PM 37.9 °F - 27.0 °F 65% 30.35 in 10.0 mi Calm Calm - N/A   Clear
10:54 PM 35.1 °F 32.2 °F 26.1 °F 70% 30.35 in 10.0 mi SSW 3.5 mph - N/A   Clear
11:54 PM 30.9 °F 26.2 °F 28.0 °F 89% 30.35 in 10.0 mi NW 4.6 mph - N/A   Clear